Location: Al Mulaqqa?ah
(24.1833°N, 32.8833°E)
Time: 20:34:19
(UTC+00:00)

SEDSat Delta rocket - Visible Passes

Search period start: 24 January 2022 00:00
Search period end: 03 February 2022 00:00
Orbit: 532 x 999 km, 31.4° (Epoch: 24 January)

Date Brightness Start Highest point End Pass type
(mag) Time Alt. Az. Time Alt. Az. Time Alt. Az.
26 Jan 5.9 03:46:28 10° SSW 03:51:23 27° SE 03:56:43 10° E visible
27 Jan 6.0 03:06:03 10° SSW 03:10:19 22° SE 03:14:56 10° E visible
28 Jan 6.0 02:25:54 10° S 02:29:18 17° SE 02:32:58 10° ESE visible
29 Jan 6.1 01:47:27 12° SSE 01:48:20 12° SE 01:50:33 10° ESE visible
29 Jan 4.4 03:28:37 10° SW 03:34:01 54° SSE 03:40:10 10° ENE visible
30 Jan 4.5 02:49:49 22° SSW 02:52:56 44° SSE 02:58:39 10° E visible
31 Jan 4.7 02:11:52 35° SSE 02:11:56 35° SSE 02:17:08 10° E visible
31 Jan 3.7 03:52:36 10° WSW 03:58:07 74° NNW 04:04:25 10° ENE visible
01 Feb 5.9 01:33:47 18° ESE 01:33:47 18° ESE 01:35:34 10° E visible
01 Feb 3.5 03:13:55 27° WSW 03:16:58 83° NNW 03:23:02 10° ENE visible
02 Feb 3.3 02:35:41 83° SW 02:35:52 86° SSE 02:41:40 10° ENE visible
